Theta_e
296 295 295 295 296 296 296 297 299 303 310 313 313 312 312 310 308 308 305 304 304 302
295 295 294 294 295 295 296 297 299 300 301 304 310 311 309 307 305 305 303 303 303 301
293 294 294 294 294 294 294 295 296 296 298 299 301 304 305 302 302 301 299 301 301 300
293 293 294 293 292 292 292 292 294 295 296 296 297 299 300 299 300 299 298 298 299 297
291 292 292 291 290 291 290 291 291 292 292 293 294 296 298 297 297 296 295 294 294 293
288 289 288 289 289 289 289 289 289 289 290 290 291 291 291 292 292 292 291 291 291 288
285 287 287 287 287 286 286 286 284 284 284 284 285 286 287 288 287 286 286 285 285 284
283 283 284 284 282 282 283 282 284 282 282 282 283 283 283 284 284 284 283 283 282 282
282 282 282 281 281 281 280 280 281 280 281 281 282 285 287 284 282 282 282 281 281 281
281 281 281 280 280 280 279 280 279 280 280 280 282 287 286 284 281 281 280 281 281 281
281 280 280 280 279 278 278 278 279 279 280 280 283 287 285 283 280 279 279 280 280 280
280 280 279 279 278 278 278 278 278 279 279 280 282 286 285 282 279 279 278 279 279 279
281 280 279 279 278 279 278 279 280 280 279 278 281 286 285 281 279 277 278 277 278 280
281 281 280 279 278 279 278 279 278 279 279 279 280 282 285 284 279 278 277 277 276 279
Wind_Speed
7 5 5 5 4 4 4 3 4 3 7 9 12 11 10 7 6 7 6 8 5 5
6 6 5 6 5 4 4 3 5 5 8 5 10 11 10 8 7 7 5 6 6 6
5 5 5 5 6 6 6 6 6 5 6 7 7 8 9 7 6 8 4 4 7 6
4 4 5 5 5 6 5 6 6 5 6 7 8 8 9 8 9 9 7 4 6 6
3 3 5 6 5 5 6 6 6 6 8 7 8 7 8 9 7 9 8 6 7 7
3 4 4 4 5 5 5 6 6 6 6 6 6 9 8 10 8 8 7 7 7 7
3 4 4 4 4 4 4 5 6 5 6 6 6 6 5 7 7 6 6 6 7 6
5 4 5 6 5 5 5 5 5 6 6 6 6 4 7 5 6 8 7 6 6 6
6 6 5 6 6 5 5 5 6 5 5 6 4 9 11 9 6 6 7 8 6 6
5 6 7 5 6 6 5 4 5 5 5 5 5 10 10 11 6 6 6 7 7 5
6 6 6 7 5 5 5 4 4 4 5 6 4 9 10 10 6 6 5 5 6 5
8 8 7 7 8 5 5 4 3 3 5 6 6 10 11 8 5 6 5 5 5 6
10 9 9 7 7 4 5 5 4 4 4 3 5 12 12 7 4 5 4 4 5 8
11 10 8 7 5 5 5 7 6 5 4 5 4 6 13 13 5 5 5 3 3 3
Wind_Direction
28 45 59 52 60 60 62 43 42 60 125 134 148 150 154 152 141 138 129 132 128 124
33 46 64 56 48 63 47 52 79 72 83 94 134 143 142 141 133 140 128 128 133 128
40 36 59 72 63 41 49 57 62 70 98 99 101 120 130 124 121 118 108 125 130 113
56 48 56 66 68 69 74 69 67 85 84 93 107 115 120 126 132 130 125 106 113 100
79 59 71 61 47 53 71 63 69 78 94 99 98 93 118 124 120 130 130 132 125 136
110 90 71 76 71 67 63 62 69 65 81 88 92 115 112 121 128 129 139 147 146 150
134 114 105 82 77 82 74 81 75 71 79 75 93 78 64 98 103 95 93 94 103 121
136 116 108 99 90 90 89 83 87 90 85 93 85 93 112 106 113 119 116 106 113 127
147 136 128 122 114 100 95 93 93 95 105 96 85 123 119 116 118 115 124 116 93 96
167 151 146 135 127 123 113 111 112 116 108 100 105 125 121 120 110 116 115 124 133 126
169 164 155 144 149 134 128 135 130 132 129 121 113 132 124 114 102 104 103 113 116 126
173 167 164 169 159 156 137 143 147 141 146 137 136 146 144 127 120 119 112 98 90 111
173 173 179 170 165 153 145 146 141 137 147 141 151 158 156 137 125 123 124 112 120 125
175 176 171 156 151 146 150 142 147 145 150 159 166 180 169 163 151 150 144 156 154 174